This is the latest recevied weather packets stored in our database for station/object NC4M. If no packets are shown the sender has not sent any weather packets the latest 10 day(s).
| Time | Temp. | Humidity | Pressure | Rain* | Wind** | Luminosity | Snow |
|---|---|---|---|---|---|---|---|
| 1788157035 | 22.78° C | 64% | 1017.1 hPa | 0 mm | - | 0 W/m² | - |
| 1788156731 | 22.78° C | 63% | 1017.5 hPa | 0 mm | - | 0 W/m² | - |
| 1788156427 | 22.78° C | 65% | 1017.3 hPa | 0 mm | - | 0 W/m² | - |
| 1788156127 | 23.33° C | 62% | 1017 hPa | 0 mm | - | 0 W/m² | - |
| 1788155826 | 23.33° C | 62% | 1017.1 hPa | 0 mm | - | 0 W/m² | - |
| 1788155521 | 23.33° C | 64% | 1017.3 hPa | 0 mm | - | 0 W/m² | - |
| 1788155221 | 23.89° C | 62% | 1017.3 hPa | 0 mm | - | 0 W/m² | - |
| 1788154916 | 23.89° C | 60% | 1017.1 hPa | 0 mm | - | 0 W/m² | - |
| 1788154616 | 23.89° C | 61% | 1017 hPa | 0 mm | - | 0 W/m² | - |
| 1788154315 | 23.89° C | 60% | 1016.9 hPa | 0 mm | - | 0 W/m² | - |
| 1788154014 | 23.89° C | 60% | 1017.1 hPa | 0 mm | - | 0 W/m² | - |
| 1788153714 | 23.89° C | 60% | 1017 hPa | 0 mm | - | 0 W/m² | - |
| 1788153412 | 23.89° C | 60% | 1016.8 hPa | 0 mm | - | 0 W/m² | - |
| 1788153111 | 24.44° C | 59% | 1017 hPa | 0 mm | - | 0 W/m² | - |
| 1788152806 | 24.44° C | 58% | 1016.7 hPa | 0 mm | - | 0 W/m² | - |
| 1788152504 | 24.44° C | 60% | 1016.8 hPa | 0 mm | - | 0 W/m² | - |
| 1788152204 | 23.89° C | 60% | 1016.6 hPa | 0 mm | - | 0 W/m² | - |
| 1788151899 | 23.89° C | 60% | 1016.6 hPa | 0 mm | - | 0 W/m² | - |
| 1788151594 | 23.89° C | 62% | 1016.7 hPa | 0 mm | - | 0 W/m² | - |
| 1788151289 | 23.89° C | 61% | 1016.6 hPa | 0 mm | - | 0 W/m² | - |
| 1788150985 | 23.89° C | 62% | 1016.7 hPa | 0 mm | - | 0 W/m² | - |
| 1788150680 | 23.89° C | 62% | 1016.6 hPa | 0 mm | - | 0 W/m² | - |
| 1788150379 | 23.89° C | 60% | 1016.7 hPa | 0 mm | - | 0 W/m² | - |
| 1788150074 | 23.89° C | 63% | 1016.7 hPa | 0 mm | - | 0 W/m² | - |
| 1788149770 | 23.89° C | 61% | 1016.5 hPa | 0 mm | - | 0 W/m² | - |
* Rain latest hour (hover to see other rain measurements)
** Current wind speed in m/s (hover to see current wind gust speed)